IU7LMH-13 Weather Reports


Display with metric or nautical units.
time (UTC)temp
F
wind
direction
speed
MPH
gust
MPH
rain 1hr
in
rain 24hr
in
rain mn
in
humidity
%
barometer
mb
20260902211049 75 292 4.0 6.0 0.00 0.37 0.37 85 1016.8
20260902210844 74 292 3.0 4.0 0.00 0.37 0.37 85 1016.7
20260902210642 74 292 4.0 7.0 0.00 0.37 0.37 85 1016.6
20260902210443 74 248 3.0 4.0 0.00 0.37 0.37 85 1016.7
20260902210244 74 292 3.0 4.0 0.00 0.37 0.37 85 1016.7
20260902210050 74 292 2.0 4.0 0.00 0.37 0.37 85 1016.6
20260902205843 74 315 2.0 4.0 0.00 0.37 0.37 85 1016.7
20260902205643 74 315 2.0 2.0 0.00 0.37 0.37 85 1016.7
20260902205443 74 315 2.0 4.0 0.00 0.37 0.37 85 1016.8
20260902205243 74 292 2.0 4.0 0.00 0.37 0.37 84 1016.7
20260902205047 74 315 2.0 2.0 0.00 0.37 0.37 84 1016.5
20260902204843 74 315 2.0 4.0 0.00 0.37 0.37 84 1016.6
20260902204642 74 338 2.0 4.0 0.00 0.37 0.37 84 1016.7
20260902204443 74 292 3.0 4.0 0.00 0.37 0.37 84 1016.7
20260902204050 75 315 3.0 4.0 0.00 0.37 0.37 84 1016.7
20260902203643 75 270 2.0 2.0 0.00 0.37 0.37 84 1016.6
20260902203443 75 292 2.0 4.0 0.00 0.37 0.37 83 1016.6
20260902203245 75 292 2.0 4.0 0.00 0.37 0.37 83 1016.6
20260902203051 75 270 2.0 4.0 0.00 0.37 0.37 83 1016.4
20260902202844 75 270 3.0 4.0 0.00 0.37 0.37 83 1016.8
20260902202643 75 315 2.0 2.0 0.00 0.37 0.37 82 1016.7
20260902202444 75 292 2.0 2.0 0.00 0.37 0.37 82 1016.6
20260902202244 75 292 0.0 2.0 0.00 0.37 0.37 81 1016.6
20260902202048 75 292 0.0 0.0 0.00 0.37 0.37 81 1016.7
20260902201843 75 292 0.0 2.0 0.00 0.37 0.37 81 1016.4
20260902201643 75 292 0.0 2.0 0.00 0.37 0.37 81 1016.4
20260902201442 75 270 2.0 2.0 0.00 0.37 0.37 81 1016.7
20260902201050 75 270 4.0 6.0 0.00 0.37 0.37 82 1016.5
20260902200843 75 315 3.0 4.0 0.00 0.37 0.37 83 1016.6
20260902200642 74 292 2.0 2.0 0.00 0.37 0.37 84 1016.5
20260902200443 74 292 2.0 4.0 0.00 0.37 0.37 84 1016.5
20260902200243 74 270 4.0 4.0 0.00 0.37 0.37 85 1016.4
20260902200051 74 292 3.0 4.0 0.00 0.37 0.37 85 1016.4
20260902195843 74 270 4.0 6.0 0.00 0.37 0.37 84 1016.4
20260902195643 74 248 4.0 4.0 0.00 0.37 0.37 84 1016.4
20260902195443 75 270 4.0 6.0 0.00 0.37 0.37 84 1016.4
20260902195244 75 270 4.0 4.0 0.00 0.37 0.37 83 1016.5
20260902195048 75 248 3.0 4.0 0.00 0.37 0.37 83 1016.2
20260902194843 75 270 2.0 2.0 0.00 0.37 0.37 83 1016.3
20260902194645 75 248 2.0 4.0 0.00 0.37 0.37 82 1016.4
20260902194443 75 248 2.0 4.0 0.00 0.37 0.37 82 1016.4
20260902193843 75 270 2.0 4.0 0.00 0.37 0.37 82 1016.4
20260902193643 75 292 2.0 4.0 0.00 0.37 0.37 83 1016.5
20260902193444 75 270 2.0 4.0 0.00 0.37 0.37 83 1016.5
20260902193244 75 270 3.0 4.0 0.00 0.37 0.37 84 1016.5
20260902193050 75 292 4.0 4.0 0.00 0.37 0.37 83 1016.7
20260902192844 75 292 4.0 6.0 0.00 0.37 0.37 83 1016.7
20260902192644 75 292 4.0 6.0 0.00 0.37 0.37 83 1016.7
20260902192444 75 270 4.0 6.0 0.00 0.37 0.37 83 1016.8
20260902192243 75 270 3.0 4.0 0.00 0.37 0.37 83 1016.7
20260902192047 75 292 3.0 4.0 0.00 0.37 0.37 83 1016.5
20260902191843 75 270 2.0 4.0 0.00 0.37 0.37 83 1016.5
20260902191643 75 248 3.0 4.0 0.00 0.37 0.37 83 1016.5
20260902191050 75 225 2.0 2.0 0.00 0.37 0.37 82 1016.2
20260902190843 76 270 2.0 4.0 0.00 0.37 0.37 82 1016.4
20260902190644 76 248 4.0 6.0 0.00 0.37 0.37 81 1016.3
20260902190243 76 248 4.0 7.0 0.00 0.37 0.37 80 1016.4
20260902190050 76 292 5.0 7.0 0.00 0.37 0.37 80 1016.2
20260902185842 76 315 6.0 8.0 0.00 0.37 0.37 80 1016.5
20260902185643 76 292 5.0 8.0 0.00 0.37 0.37 80 1016.2
20260902184842 75 315 4.0 7.0 0.00 0.37 0.37 80 1016.2
20260902184643 75 248 5.0 8.0 0.00 0.37 0.37 81 1016.2
20260902184443 75 292 4.0 7.0 0.00 0.37 0.37 82 1016.3
20260902184243 75 292 4.0 6.0 0.00 0.37 0.37 83 1016.4
20260902183644 74 248 4.0 6.0 0.00 0.37 0.37 84 1016.3
20260902183444 74 315 4.0 4.0 0.00 0.37 0.37 85 1016.4
20260902183243 74 270 3.0 4.0 0.00 0.37 0.37 85 1016.1
20260902183050 74 270 2.0 4.0 0.00 0.37 0.37 84 1016.3
20260902182843 74 292 2.0 4.0 0.00 0.37 0.37 84 1016.2
20260902182445 75 270 1.0 2.0 0.00 0.37 0.37 83 1016.3
20260902182244 75 270 2.0 2.0 0.00 0.37 0.37 83 1016.1
20260902182047 75 248 2.0 4.0 0.00 0.37 0.37 83 1016.0
20260902181843 74 292 2.0 4.0 0.00 0.37 0.37 83 1016.2
20260902181643 74 292 3.0 4.0 0.00 0.37 0.37 83 1016.0
20260902181444 74 270 3.0 4.0 0.00 0.37 0.37 83 1015.9
20260902181243 74 315 4.0 7.0 0.00 0.37 0.37 84 1016.0
20260902181050 74 292 4.0 7.0 0.00 0.37 0.37 85 1015.9
20260902180844 74 292 5.0 7.0 0.00 0.37 0.37 86 1015.9
20260902180444 74 270 3.0 6.0 0.00 0.37 0.37 86 1015.8
20260902180243 74 292 2.0 4.0 0.00 0.37 0.37 86 1016.0
20260902180051 74 292 2.0 2.0 0.00 0.37 0.37 86 1016.0
20260902175843 74 315 2.0 4.0 0.00 0.37 0.37 86 1015.7
20260902175643 74 315 2.0 4.0 0.00 0.37 0.37 86 1015.9
20260902175442 74 315 3.0 4.0 0.00 0.37 0.37 86 1016.0
20260902175243 74 292 2.0 4.0 0.00 0.37 0.37 86 1015.7
20260902175045 74 292 3.0 4.0 0.00 0.37 0.37 86 1016.0
20260902174843 74 315 3.0 4.0 0.00 0.37 0.37 86 1015.8
20260902174643 74 315 2.0 4.0 0.00 0.37 0.37 86 1015.9
20260902174242 74 315 2.0 4.0 0.00 0.37 0.37 85 1016.0
20260902173843 74 315 2.0 4.0 0.00 0.37 0.37 84 1016.0
20260902173711 74 315 1.0 2.0 0.00 0.37 0.37 84 1016.2
20260902173443 74 292 2.0 2.0 0.00 0.37 0.37 84 1015.7
20260902173242 74 292 2.0 4.0 0.00 0.37 0.37 84 1015.8
20260902172844 74 270 3.0 4.0 0.00 0.37 0.37 85 1016.0
20260902172643 74 315 4.0 7.0 0.00 0.37 0.37 85 1016.0
20260902172445 74 292 4.0 6.0 0.00 0.37 0.37 85 1016.0
20260902172242 74 292 4.0 6.0 0.00 0.37 0.37 85 1016.1
20260902172047 74 315 4.0 6.0 0.00 0.37 0.37 85 1016.2
20260902171842 74 292 5.0 7.0 0.00 0.37 0.37 85 1016.3
20260902171642 74 292 5.0 7.0 0.00 0.37 0.37 86 1016.2
20260902171442 74 315 4.0 7.0 0.00 0.37 0.37 86 1016.4
20260902171242 74 270 5.0 7.0 0.00 0.37 0.37 86 1016.3
20260902170842 74 292 5.0 7.0 0.00 0.37 0.37 86 1016.4
20260902170643 74 270 3.0 4.0 0.00 0.37 0.37 86 1016.4
20260902170444 74 292 4.0 6.0 0.00 0.37 0.37 86 1016.3
20260902170243 74 292 3.0 4.0 0.00 0.37 0.37 86 1016.2
20260902170049 74 292 3.0 4.0 0.00 0.37 0.37 86 1016.4
20260902165842 74 270 3.0 6.0 0.00 0.37 0.37 86 1016.4
20260902165643 74 270 4.0 6.0 0.00 0.37 0.37 86 1016.5
20260902165442 74 248 4.0 4.0 0.00 0.37 0.37 86 1016.4
20260902165242 73 248 4.0 4.0 0.00 0.37 0.37 87 1016.4
20260902165046 73 248 4.0 4.0 0.00 0.37 0.37 87 1016.3
20260902164842 73 248 3.0 4.0 0.00 0.37 0.37 88 1016.4
20260902164644 74 270 2.0 4.0 0.00 0.37 0.37 88 1016.5
20260902164444 74 270 2.0 2.0 0.01 0.37 0.37 88 1016.7
20260902164244 74 270 0.0 0.0 0.02 0.37 0.37 89 1016.6
20260902164050 73 270 0.0 0.0 0.04 0.37 0.37 89 1016.6
20260902163643 73 248 1.0 2.0 0.04 0.37 0.37 89 1016.6
20260902163444 73 248 1.0 2.0 0.04 0.37 0.37 89 1016.7
20260902163243 72 248 2.0 4.0 0.04 0.37 0.37 90 1016.7
20260902163050 72 270 2.0 4.0 0.04 0.37 0.37 90 1016.7
20260902162842 72 270 3.0 4.0 0.04 0.37 0.37 90 1016.8
20260902162642 72 270 4.0 4.0 0.04 0.37 0.37 90 1016.9
20260902162444 73 270 6.0 7.0 0.04 0.37 0.37 91 1016.8
20260902162243 72 270 3.0 4.0 0.04 0.37 0.37 91 1016.9
20260902161643 72 270 2.0 4.0 0.04 0.37 0.37 91 1017.1
20260902161444 72 248 4.0 4.0 0.04 0.37 0.37 91 1017.0
20260902161242 72 248 4.0 6.0 0.04 0.37 0.37 91 1017.2
20260902161050 72 270 4.0 6.0 0.04 0.37 0.37 91 1017.2
20260902160842 72 292 2.0 4.0 0.05 0.37 0.37 91 1017.1
20260902160642 72 158 2.0 2.0 0.05 0.37 0.37 92 1017.3
20260902160444 73 202 1.0 2.0 0.07 0.37 0.37 91 1017.4
20260902160243 73 270 0.0 2.0 0.08 0.37 0.37 91 1017.3
20260902160051 73 270 1.0 2.0 0.10 0.37 0.37 91 1017.6
20260902155843 72 270 2.0 2.0 0.11 0.37 0.37 91 1017.5
20260902155641 72 248 2.0 4.0 0.11 0.37 0.37 91 1017.4
20260902155442 73 248 3.0 4.0 0.11 0.37 0.37 90 1017.3
20260902155244 73 248 2.0 4.0 0.12 0.37 0.37 90 1017.2
20260902155046 72 225 2.0 2.0 0.14 0.37 0.37 90 1017.3
20260902154843 72 270 2.0 4.0 0.16 0.37 0.37 90 1017.3
20260902154643 73 180 4.0 9.0 0.15 0.36 0.36 90 1017.5
20260902154442 73 180 4.0 8.0 0.14 0.35 0.35 90 1017.5
20260902154242 73 135 3.0 4.0 0.11 0.33 0.33 90 1017.5
20260902154049 73 202 3.0 6.0 0.11 0.33 0.33 90 1017.4
20260902153843 73 158 4.0 6.0 0.11 0.33 0.33 90 1017.1
20260902153643 72 248 2.0 2.0 0.11 0.33 0.33 89 1017.2
20260902153444 72 292 3.0 4.0 0.11 0.33 0.33 89 1016.9
20260902153243 72 248 4.0 6.0 0.11 0.33 0.33 89 1017.1
20260902152844 72 248 5.0 7.0 0.11 0.33 0.33 89 1017.2
20260902152444 72 248 5.0 8.0 0.11 0.33 0.33 89 1017.0
20260902152242 72 202 4.0 8.0 0.11 0.33 0.33 89 1017.2
20260902152048 73 225 4.0 8.0 0.11 0.33 0.33 89 1017.3
20260902151841 73 202 3.0 4.0 0.11 0.33 0.33 89 1017.4
20260902151644 73 248 2.0 2.0 0.11 0.33 0.33 89 1017.3
20260902151444 73 180 4.0 6.0 0.11 0.33 0.33 89 1017.3
20260902151243 74 158 4.0 4.0 0.11 0.33 0.33 88 1017.2
20260902151050 74 90 2.0 4.0 0.10 0.31 0.31 88 1017.3
20260902150843 73 135 2.0 2.0 0.10 0.31 0.31 87 1017.6
20260902150643 73 248 2.0 4.0 0.09 0.30 0.30 86 1017.3
20260902150445 73 248 2.0 4.0 0.08 0.29 0.29 86 1017.2
20260902150242 74 292 4.0 6.0 0.05 0.27 0.27 85 1017.4
20260902150051 74 270 5.0 7.0 0.05 0.25 0.25 85 1017.4
20260902145841 74 292 4.0 4.0 0.05 0.25 0.25 84 1017.4
20260902145643 74 338 7.0 9.0 0.05 0.25 0.25 83 1017.6
20260902145443 75 315 7.0 9.0 0.05 0.24 0.24 81 1017.6
20260902145047 76 315 6.0 9.0 0.02 0.21 0.21 76 1017.6
20260902144844 76 315 6.0 9.0 0.03 0.21 0.21 76 1017.3
20260902144643 74 292 4.0 7.0 0.03 0.21 0.21 79 1017.0
20260902144444 74 270 7.0 9.0 0.04 0.21 0.21 80 1017.1
20260902144242 74 292 8.0 16.0 0.04 0.21 0.21 82 1016.9
20260902144049 74 270 5.0 8.0 0.05 0.21 0.21 82 1016.8
20260902143843 74 292 4.0 6.0 0.05 0.21 0.21 82 1016.7
20260902143643 73 248 4.0 6.0 0.08 0.21 0.21 83 1016.4
20260902143443 73 248 3.0 4.0 0.11 0.21 0.21 83 1016.3
20260902143244 73 225 4.0 7.0 0.17 0.21 0.21 83 1016.4
20260902143048 72 248 3.0 4.0 0.20 0.21 0.21 84 1016.3
20260902142842 72 225 3.0 7.0 0.21 0.21 0.21 84 1016.4
20260902142444 72 270 4.0 7.0 0.21 0.21 0.21 85 1016.4
20260902142242 72 225 3.0 4.0 0.21 0.21 0.21 85 1016.2
20260902142047 72 225 2.0 2.0 0.21 0.21 0.21 85 1015.8
20260902141843 72 158 2.0 4.0 0.21 0.21 0.21 85 1015.6
20260902141643 72 202 3.0 6.0 0.21 0.21 0.21 85 1015.7
20260902141444 72 180 2.0 4.0 0.21 0.21 0.21 85 1015.9
20260902141051 72 270 4.0 6.0 0.21 0.21 0.21 85 1016.2
20260902140843 72 158 4.0 6.0 0.21 0.21 0.21 85 1016.1
20260902140642 72 225 5.0 9.0 0.21 0.21 0.21 85 1016.1
20260902140443 72 158 5.0 11.0 0.21 0.21 0.21 84 1016.3
20260902140051 72 158 10.0 14.0 0.20 0.20 0.20 82 1016.8
20260902135842 72 202 9.0 13.0 0.20 0.20 0.20 83 1017.2
20260902135642 72 202 8.0 11.0 0.18 0.18 0.18 81 1017.0
20260902135242 72 180 11.0 18.0 0.18 0.18 0.18 82 1016.9
20260902135047 73 248 13.0 24.0 0.17 0.17 0.17 81 1017.0
20260902134842 73 180 11.0 15.0 0.17 0.17 0.17 81 1017.2
20260902134643 74 202 10.0 15.0 0.16 0.16 0.16 80 1017.2
20260902134445 74 202 10.0 17.0 0.16 0.16 0.16 78 1017.0
20260902134242 74 202 8.0 17.0 0.15 0.15 0.15 78 1017.0
20260902134049 73 225 5.0 7.0 0.15 0.15 0.15 77 1016.9
20260902133842 73 248 15.0 18.0 0.12 0.12 0.12 76 1017.1
20260902133445 82 270 18.0 29.0 0.03 0.03 0.03 77 1016.9
20260902133244 84 315 8.0 17.0 0.01 0.01 0.01 71 1016.5
20260902132842 90 292 4.0 7.0 0.00 0.00 0.00 53 1016.5
20260902132642 91 270 3.0 4.0 0.00 0.00 0.00 49 1016.4
20260902132443 91 225 4.0 4.0 0.00 0.00 0.00 48 1016.1
20260902132242 91 248 3.0 4.0 0.00 0.00 0.00 48 1016.0
20260902132046 91 158 4.0 4.0 0.00 0.00 0.00 48 1015.6
20260902131841 91 135 4.0 6.0 0.00 0.00 0.00 48 1015.5
20260902131642 91 180 4.0 8.0 0.00 0.00 0.00 48 1015.3
20260902131444 91 135 6.0 8.0 0.00 0.00 0.00 48 1015.6
20260902131245 91 158 7.0 9.0 0.00 0.00 0.00 48 1015.7
20260902131049 91 248 4.0 8.0 0.00 0.00 0.00 48 1015.7
20260902130843 90 158 5.0 8.0 0.00 0.00 0.00 48 1015.5
20260902130444 91 158 7.0 11.0 0.00 0.00 0.00 50 1015.5
20260902130242 92 180 4.0 7.0 0.00 0.00 0.00 50 1015.5
20260902130050 92 135 6.0 8.0 0.00 0.00 0.00 49 1015.4
20260902125842 92 158 5.0 8.0 0.00 0.00 0.00 48 1015.5
20260902125642 92 158 5.0 8.0 0.00 0.00 0.00 48 1015.7
20260902125445 92 180 5.0 11.0 0.00 0.00 0.00 48 1015.7
20260902125244 93 112 5.0 9.0 0.00 0.00 0.00 47 1015.6
20260902125047 93 180 6.0 9.0 0.00 0.00 0.00 48 1015.7
20260902124843 93 158 6.0 9.0 0.00 0.00 0.00 48 1015.6
20260902124643 92 135 4.0 7.0 0.00 0.00 0.00 49 1015.7
20260902124444 92 270 6.0 8.0 0.00 0.00 0.00 50 1015.9
20260902124242 92 180 4.0 7.0 0.00 0.00 0.00 51 1016.1
20260902124049 92 225 4.0 8.0 0.00 0.00 0.00 51 1016.0
20260902123842 94 202 7.0 9.0 0.00 0.00 0.00 50 1016.1
20260902123642 94 202 7.0 11.0 0.00 0.00 0.00 49 1015.9
20260902123444 95 158 8.0 11.0 0.00 0.00 0.00 48 1015.8
20260902123242 94 180 4.0 7.0 0.00 0.00 0.00 47 1015.9
20260902123049 94 180 7.0 9.0 0.00 0.00 0.00 48 1016.0
20260902122643 94 158 5.0 8.0 0.00 0.00 0.00 50 1016.2
20260902122443 95 180 6.0 9.0 0.00 0.00 0.00 48 1016.0
20260902122242 95 68 4.0 7.0 0.00 0.00 0.00 47 1016.2
20260902122047 95 202 5.0 7.0 0.00 0.00 0.00 48 1016.2
20260902121842 95 158 4.0 7.0 0.00 0.00 0.00 48 1016.3
20260902121643 94 112 4.0 6.0 0.00 0.00 0.00 48 1016.5
20260902121444 94 180 4.0 7.0 0.00 0.00 0.00 48 1016.3
20260902121241 94 202 4.0 7.0 0.00 0.00 0.00 48 1016.3
20260902121050 94 112 4.0 6.0 0.00 0.00 0.00 48 1016.7
20260902120844 94 135 4.0 9.0 0.00 0.00 0.00 48 1016.5
20260902120643 94 248 4.0 9.0 0.00 0.00 0.00 49 1016.5
20260902120443 94 135 4.0 7.0 0.00 0.00 0.00 49 1016.5
20260902120242 94 135 5.0 8.0 0.00 0.00 0.00 49 1016.6
20260902120050 94 158 6.0 9.0 0.00 0.00 0.00 50 1016.6
20260902115643 94 135 4.0 6.0 0.00 0.00 0.00 49 1016.6
20260902115443 95 112 6.0 8.0 0.00 0.00 0.00 46 1016.6
20260902115243 94 180 4.0 8.0 0.00 0.00 0.00 48 1016.7
20260902115047 94 112 4.0 8.0 0.00 0.00 0.00 46 1016.6
20260902114842 94 158 7.0 9.0 0.00 0.00 0.00 47 1016.7
20260902114643 94 158 4.0 9.0 0.00 0.00 0.00 46 1016.5
20260902114444 94 225 5.0 9.0 0.00 0.00 0.00 47 1016.6
20260902114242 94 180 7.0 9.0 0.00 0.00 0.00 47 1016.6
20260902113843 94 180 5.0 7.0 0.00 0.00 0.00 47 1016.6
20260902113643 94 112 7.0 11.0 0.00 0.00 0.00 49 1016.5
20260902113444 94 90 4.0 6.0 0.00 0.00 0.00 47 1016.7
20260902113259 94 135 5.0 8.0 0.00 0.00 0.00 48 1016.9
20260902113048 94 135 3.0 4.0 0.00 0.00 0.00 47 1016.9
20260902112841 95 112 6.0 9.0 0.00 0.00 0.00 46 1016.8
20260902112642 94 202 6.0 8.0 0.00 0.00 0.00 45 1016.9
20260902112443 94 180 4.0 9.0 0.00 0.00 0.00 46 1016.8
20260902112242 94 112 6.0 8.0 0.00 0.00 0.00 46 1016.9
20260902112047 94 158 6.0 11.0 0.00 0.00 0.00 47 1016.9
20260902111842 93 225 4.0 6.0 0.00 0.00 0.00 48 1017.0
20260902111643 93 135 7.0 9.0 0.00 0.00 0.00 48 1017.1
20260902111444 93 112 4.0 8.0 0.00 0.00 0.00 47 1016.8
20260902111242 93 135 4.0 6.0 0.00 0.00 0.00 46 1017.1
20260902110843 93 135 5.0 11.0 0.00 0.00 0.00 47 1016.9
20260902110642 94 180 5.0 8.0 0.00 0.00 0.00 47 1017.0
20260902110445 94 135 4.0 6.0 0.00 0.00 0.00 48 1017.1
20260902110242 94 180 5.0 11.0 0.00 0.00 0.00 46 1016.9
20260902105841 93 135 3.0 7.0 0.00 0.00 0.00 48 1017.1
20260902105643 92 180 4.0 7.0 0.00 0.00 0.00 49 1017.0
20260902105443 92 112 6.0 9.0 0.00 0.00 0.00 50 1017.2
20260902105243 92 180 5.0 11.0 0.00 0.00 0.00 50 1017.0
20260902105046 94 90 4.0 7.0 0.00 0.00 0.00 48 1017.2
20260902104841 94 90 4.0 7.0 0.00 0.00 0.00 48 1017.0
20260902104641 93 180 4.0 6.0 0.00 0.00 0.00 48 1017.2
20260902104445 93 112 6.0 9.0 0.00 0.00 0.00 49 1017.0
20260902104241 93 202 4.0 8.0 0.00 0.00 0.00 48 1017.1
20260902104051 92 135 4.0 7.0 0.00 0.00 0.00 48 1017.1
20260902103841 92 112 5.0 9.0 0.00 0.00 0.00 51 1017.2
20260902103643 92 112 6.0 8.0 0.00 0.00 0.00 51 1017.2
20260902103445 92 112 4.0 7.0 0.00 0.00 0.00 53 1017.2
20260902103049 92 112 4.0 6.0 0.00 0.00 0.00 53 1017.2
20260902102842 93 112 8.0 9.0 0.00 0.00 0.00 54 1017.2
20260902102642 93 158 5.0 11.0 0.00 0.00 0.00 53 1017.2
20260902102443 94 158 5.0 7.0 0.00 0.00 0.00 52 1017.4
20260902102241 94 112 5.0 9.0 0.00 0.00 0.00 51 1017.3
20260902102047 94 90 4.0 7.0 0.00 0.00 0.00 49 1017.3
20260902101642 93 180 4.0 4.0 0.00 0.00 0.00 50 1017.4
20260902101444 94 68 7.0 9.0 0.00 0.00 0.00 50 1017.4
20260902101243 94 112 4.0 6.0 0.00 0.00 0.00 49 1017.5
20260902101049 94 112 4.0 6.0 0.00 0.00 0.00 47 1017.4
20260902100843 95 158 4.0 7.0 0.00 0.00 0.00 48 1017.3
20260902100642 95 112 4.0 6.0 0.00 0.00 0.00 47 1017.4
20260902100444 95 135 4.0 6.0 0.00 0.00 0.00 49 1017.5
20260902100241 95 158 4.0 6.0 0.00 0.00 0.00 46 1017.4
20260902095841 96 68 3.0 6.0 0.00 0.00 0.00 45 1017.8
20260902095643 94 180 2.0 4.0 0.00 0.00 0.00 46 1017.5
20260902094641 96 90 2.0 2.0 0.00 0.00 0.00 42 1017.7
20260902094444 96 225 2.0 2.0 0.00 0.00 0.00 41 1017.7
20260902094051 95 225 2.0 4.0 0.00 0.00 0.00 42 1017.6
20260902093643 96 292 2.0 4.0 0.00 0.00 0.00 42 1017.7
20260902093445 96 338 2.0 4.0 0.00 0.00 0.00 41 1017.7
20260902093243 96 270 2.0 2.0 0.00 0.00 0.00 42 1017.7
20260902093051 96 270 1.0 2.0 0.00 0.00 0.00 42 1017.8
20260902092843 95 292 1.0 2.0 0.00 0.00 0.00 43 1017.6
20260902092643 95 248 2.0 2.0 0.00 0.00 0.00 43 1017.8
20260902092444 95 270 1.0 2.0 0.00 0.00 0.00 43 1017.8
20260902092242 94 315 1.0 2.0 0.00 0.00 0.00 45 1017.6
20260902092048 95 90 4.0 6.0 0.00 0.00 0.00 44 1017.7
20260902091642 95 248 0.0 2.0 0.00 0.00 0.00 43 1017.7
20260902091445 95 45 2.0 2.0 0.00 0.00 0.00 44 1017.7
20260902091050 94 90 1.0 2.0 0.00 0.00 0.00 43 1017.8
20260902090844 94 248 1.0 2.0 0.00 0.00 0.00 44 1017.8
20260902090445 94 292 2.0 4.0 0.00 0.00 0.00 46 1017.6
20260902090242 95 292 2.0 4.0 0.00 0.00 0.00 45 1017.6
20260902090052 96 0 3.0 4.0 0.00 0.00 0.00 44 1017.7
20260902085842 95 0 1.0 2.0 0.00 0.00 0.00 43 1017.7
20260902085444 95 68 1.0 2.0 0.00 0.00 0.00 44 1017.5
20260902085047 95 292 2.0 2.0 0.00 0.00 0.00 45 1017.9
20260902084843 95 22 1.0 4.0 0.00 0.00 0.00 44 1017.7
20260902084641 94 225 1.0 2.0 0.00 0.00 0.00 45 1017.7
20260902084241 94 315 2.0 4.0 0.00 0.00 0.00 46 1017.6
20260902084050 93 112 2.0 2.0 0.00 0.00 0.00 45 1017.7
20260902083843 92 22 1.0 2.0 0.00 0.00 0.00 47 1017.8
20260902083643 93 90 3.0 4.0 0.00 0.00 0.00 46 1017.7
20260902083446 93 45 2.0 4.0 0.00 0.00 0.00 46 1018.0
20260902083243 93 338 2.0 2.0 0.00 0.00 0.00 47 1017.8
20260902083051 92 338 2.0 4.0 0.00 0.00 0.00 47 1017.8
20260902082843 92 0 1.0 2.0 0.00 0.00 0.00 47 1017.9
20260902082642 93 22 2.0 2.0 0.00 0.00 0.00 47 1017.8
20260902082444 93 22 2.0 4.0 0.00 0.00 0.00 46 1017.9
20260902082045 92 45 1.0 2.0 0.00 0.00 0.00 48 1018.0
20260902081842 91 292 2.0 4.0 0.00 0.00 0.00 48 1017.8
20260902081444 92 292 1.0 2.0 0.00 0.00 0.00 48 1017.9
20260902081242 92 45 3.0 4.0 0.00 0.00 0.00 48 1017.9
20260902081049 92 68 2.0 4.0 0.00 0.00 0.00 48 1017.8
20260902080842 91 338 1.0 2.0 0.00 0.00 0.00 48 1017.9
20260902080643 91 315 2.0 4.0 0.00 0.00 0.00 48 1018.0
20260902080444 91 0 3.0 4.0 0.00 0.00 0.00 49 1018.1
20260902080241 91 68 2.0 4.0 0.00 0.00 0.00 48 1018.1
20260902080051 91 0 1.0 2.0 0.00 0.00 0.00 48 1017.9
20260902075842 90 315 1.0 4.0 0.00 0.00 0.00 49 1018.0
20260902075642 91 315 2.0 4.0 0.00 0.00 0.00 49 1017.9
20260902075444 90 315 2.0 4.0 0.00 0.00 0.00 49 1018.0
20260902075242 90 292 2.0 4.0 0.00 0.00 0.00 50 1018.0
20260902075047 89 292 2.0 6.0 0.00 0.00 0.00 51 1018.0
20260902074841 89 315 2.0 4.0 0.00 0.00 0.00 51 1017.8
20260902074642 89 315 3.0 4.0 0.00 0.00 0.00 52 1018.0
20260902074445 89 292 3.0 4.0 0.00 0.00 0.00 52 1018.0
20260902074242 89 292 3.0 6.0 0.00 0.00 0.00 51 1018.0
20260902073641 89 338 2.0 2.0 0.00 0.00 0.00 55 1018.1
20260902073445 89 292 1.0 2.0 0.00 0.00 0.00 55 1018.0
20260902073242 89 0 1.0 2.0 0.00 0.00 0.00 56 1017.9
20260902073051 88 248 2.0 2.0 0.00 0.00 0.00 57 1017.8
20260902072842 88 270 3.0 4.0 0.00 0.00 0.00 56 1017.9
20260902072644 88 248 4.0 4.0 0.00 0.00 0.00 57 1017.9
20260902072443 88 292 2.0 4.0 0.00 0.00 0.00 56 1017.7
20260902072242 88 315 3.0 4.0 0.00 0.00 0.00 57 1017.9
20260902072046 88 292 2.0 4.0 0.00 0.00 0.00 57 1018.0
20260902071842 88 292 2.0 4.0 0.00 0.00 0.00 57 1017.8
20260902071642 88 292 2.0 4.0 0.00 0.00 0.00 58 1017.9
20260902071444 89 315 2.0 4.0 0.00 0.00 0.00 57 1017.8
20260902071242 89 292 2.0 2.0 0.00 0.00 0.00 57 1017.8
20260902071049 89 292 1.0 2.0 0.00 0.00 0.00 57 1017.9
20260902070843 88 315 1.0 2.0 0.00 0.00 0.00 58 1017.8
20260902070644 88 292 1.0 2.0 0.00 0.00 0.00 58 1017.7
20260902070446 88 315 2.0 4.0 0.00 0.00 0.00 59 1017.5
20260902070243 88 292 2.0 4.0 0.00 0.00 0.00 58 1017.9
20260902070059 87 292 2.0 2.0 0.00 0.00 0.00 59 1017.7
20260902065842 87 315 0.0 0.0 0.00 0.00 0.00 61 1017.7
20260902065343 85 292 2.0 2.0 0.00 0.00 0.00 62 1017.8
20260902064744 85 292 2.0 2.0 0.00 0.00 0.00 63 1017.8
20260902064549 85 292 0.0 2.0 0.00 0.00 0.00 64 1017.8
20260902064343 84 270 2.0 2.0 0.00 0.00 0.00 64 1017.9
20260902064142 84 292 3.0 4.0 0.00 0.00 0.00 64 1017.8
20260902063944 84 292 3.0 4.0 0.00 0.00 0.00 64 1017.9
20260902063742 84 315 2.0 4.0 0.00 0.00 0.00 65 1018.0
20260902063546 83 292 3.0 4.0 0.00 0.00 0.00 65 1018.1
20260902063344 83 270 3.0 4.0 0.00 0.00 0.00 65 1018.0
20260902063142 83 292 4.0 4.0 0.00 0.00 0.00 65 1017.8
20260902062944 83 292 3.0 4.0 0.00 0.00 0.00 66 1017.8
20260902062742 83 315 3.0 4.0 0.00 0.00 0.00 66 1017.7
20260902062551 83 315 4.0 6.0 0.00 0.00 0.00 66 1017.9
20260902062143 82 292 3.0 4.0 0.00 0.00 0.00 66 1017.8
20260902061943 82 248 4.0 6.0 0.00 0.00 0.00 66 1018.0
20260902061742 82 270 4.0 6.0 0.00 0.00 0.00 66 1017.8
20260902061549 82 248 5.0 7.0 0.00 0.00 0.00 66 1017.8
20260902061343 82 270 4.0 4.0 0.00 0.00 0.00 66 1017.7
20260902061143 82 292 3.0 4.0 0.00 0.00 0.00 67 1017.8
20260902060946 82 270 3.0 4.0 0.00 0.00 0.00 67 1017.9
20260902060547 82 292 2.0 2.0 0.00 0.00 0.00 68 1017.8
20260902060343 82 292 2.0 4.0 0.00 0.00 0.00 68 1017.8
20260902060142 81 292 2.0 2.0 0.00 0.00 0.00 69 1017.6
20260902055744 81 315 3.0 4.0 0.00 0.00 0.00 69 1017.8
20260902055548 81 292 2.0 4.0 0.00 0.00 0.00 70 1017.8
20260902055342 81 292 4.0 4.0 0.00 0.00 0.00 70 1017.7
20260902055144 80 292 2.0 4.0 0.00 0.00 0.00 71 1017.5
20260902054943 80 292 4.0 4.0 0.00 0.00 0.00 71 1017.7
20260902054743 80 292 4.0 4.0 0.00 0.00 0.00 71 1017.7
20260902054550 80 315 3.0 4.0 0.00 0.00 0.00 71 1017.7
20260902054142 79 292 2.0 2.0 0.00 0.00 0.00 73 1017.7
20260902053946 79 292 2.0 2.0 0.00 0.00 0.00 73 1017.6
20260902053545 79 292 2.0 4.0 0.00 0.00 0.00 73 1017.8
20260902053343 79 292 2.0 2.0 0.00 0.00 0.00 74 1017.9
20260902053142 79 315 3.0 4.0 0.00 0.00 0.00 73 1017.8
20260902052943 79 292 3.0 4.0 0.00 0.00 0.00 74 1017.8
20260902052550 78 315 3.0 4.0 0.00 0.00 0.00 74 1017.6
20260902052343 78 292 3.0 4.0 0.00 0.00 0.00 74 1017.8
20260902052142 78 292 4.0 4.0 0.00 0.00 0.00 74 1017.8
20260902051944 78 248 3.0 4.0 0.00 0.00 0.00 74 1017.8
20260902051742 78 315 3.0 4.0 0.00 0.00 0.00 75 1017.6
20260902051344 77 315 4.0 6.0 0.00 0.00 0.00 76 1017.6
20260902051141 77 315 4.0 6.0 0.00 0.00 0.00 76 1017.5
20260902050945 77 292 3.0 4.0 0.00 0.00 0.00 76 1017.6
20260902050743 77 292 4.0 4.0 0.00 0.00 0.00 76 1017.8
20260902050547 76 292 4.0 6.0 0.00 0.00 0.00 77 1017.7
20260902050142 76 292 2.0 4.0 0.00 0.00 0.00 77 1017.7
20260902045944 76 292 2.0 4.0 0.00 0.00 0.00 77 1017.5
20260902045548 76 292 2.0 4.0 0.00 0.00 0.00 77 1017.5
20260902045342 76 292 3.0 4.0 0.00 0.00 0.00 77 1017.6
20260902045143 76 292 3.0 4.0 0.00 0.00 0.00 77 1017.6
20260902044944 76 270 4.0 6.0 0.00 0.00 0.00 77 1017.5
20260902044549 75 292 4.0 6.0 0.00 0.00 0.00 78 1017.5
20260902044148 75 292 2.0 4.0 0.00 0.00 0.00 79 1017.4
20260902043945 75 292 2.0 4.0 0.00 0.00 0.00 79 1017.4
20260902043743 75 292 2.0 4.0 0.00 0.00 0.00 79 1017.5
20260902043547 75 292 2.0 4.0 0.00 0.00 0.00 80 1017.6
20260902043343 75 292 2.0 2.0 0.00 0.00 0.00 80 1017.3
20260902043142 75 315 2.0 2.0 0.00 0.00 0.00 79 1017.4
20260902042942 75 315 2.0 4.0 0.00 0.00 0.00 79 1017.4
20260902042742 75 292 2.0 2.0 0.00 0.00 0.00 79 1017.5
20260902042142 75 315 2.0 4.0 0.00 0.00 0.00 79 1017.2
20260902041942 75 292 2.0 4.0 0.00 0.00 0.00 79 1017.2
20260902041743 75 315 2.0 4.0 0.00 0.00 0.00 79 1017.3
20260902041605 75 292 2.0 4.0 0.00 0.00 0.00 79 1017.2
20260902041342 75 315 2.0 4.0 0.00 0.00 0.00 79 1017.2
20260902040944 75 315 3.0 4.0 0.00 0.00 0.00 79 1017.6
20260902040742 75 315 2.0 4.0 0.00 0.00 0.00 79 1017.3
20260902040546 75 292 2.0 2.0 0.00 0.00 0.00 79 1017.2
20260902040344 75 292 0.0 2.0 0.00 0.00 0.00 78 1017.3
20260902040143 75 292 0.0 0.0 0.00 0.00 0.00 78 1017.3
20260902035943 76 292 1.0 2.0 0.00 0.00 0.00 78 1017.1
20260902035743 76 292 2.0 2.0 0.00 0.00 0.00 78 1017.2
20260902035548 76 270 2.0 2.0 0.00 0.00 0.00 78 1017.2
20260902035342 76 248 2.0 4.0 0.00 0.00 0.00 78 1017.0
20260902035142 76 270 2.0 2.0 0.00 0.00 0.00 77 1017.3
20260902034943 76 270 2.0 4.0 0.00 0.00 0.00 77 1017.1
20260902034549 76 292 1.0 2.0 0.00 0.00 0.00 77 1017.2
20260902034343 76 292 2.0 2.0 0.00 0.00 0.00 77 1017.2
20260902034143 76 292 2.0 4.0 0.00 0.00 0.00 78 1017.2
20260902033945 76 292 2.0 4.0 0.00 0.00 0.00 78 1017.1
20260902033545 75 292 2.0 4.0 0.00 0.00 0.00 79 1017.3
20260902033341 75 292 2.0 4.0 0.00 0.00 0.00 79 1017.2
20260902033143 75 270 2.0 2.0 0.00 0.00 0.00 79 1017.2
20260902032943 75 270 2.0 4.0 0.00 0.00 0.00 79 1017.1
20260902032742 75 270 2.0 4.0 0.00 0.00 0.00 79 1017.1
20260902032547 75 270 3.0 4.0 0.00 0.00 0.00 79 1017.1
20260902032343 75 270 2.0 4.0 0.00 0.00 0.00 79 1017.1
20260902032142 75 248 3.0 4.0 0.00 0.00 0.00 78 1017.1
20260902031942 76 270 3.0 4.0 0.00 0.00 0.00 78 1017.2
20260902031742 76 248 2.0 4.0 0.00 0.00 0.00 77 1017.2
20260902031549 76 270 2.0 2.0 0.00 0.00 0.00 77 1017.4
20260902031342 76 248 2.0 2.0 0.00 0.00 0.00 77 1017.1
20260902031143 76 270 1.0 2.0 0.00 0.00 0.00 77 1017.3
20260902030546 76 270 2.0 2.0 0.00 0.00 0.00 78 1017.1
20260902030342 76 270 2.0 4.0 0.00 0.00 0.00 78 1017.3
20260902030142 76 292 2.0 2.0 0.00 0.00 0.00 77 1017.2
20260902025943 76 292 2.0 2.0 0.00 0.00 0.00 77 1017.4
20260902025743 76 315 2.0 4.0 0.00 0.00 0.00 77 1017.1
20260902025550 76 270 3.0 4.0 0.00 0.00 0.00 77 1017.2
20260902025342 76 292 3.0 4.0 0.00 0.00 0.00 78 1017.4
20260902024743 75 270 2.0 4.0 0.00 0.00 0.00 78 1017.3
20260902024549 76 292 3.0 4.0 0.00 0.00 0.00 78 1017.5
20260902024342 76 292 3.0 4.0 0.00 0.00 0.00 78 1017.3
20260902024146 76 292 2.0 4.0 0.00 0.00 0.00 78 1017.3
20260902023947 76 270 2.0 4.0 0.00 0.00 0.00 77 1017.2
20260902023545 76 292 2.0 4.0 0.00 0.00 0.00 77 1017.3
20260902023342 76 248 2.0 4.0 0.00 0.00 0.00 77 1017.1
20260902023143 76 292 2.0 2.0 0.00 0.00 0.00 76 1017.1
20260902022944 76 270 2.0 4.0 0.00 0.00 0.00 76 1017.2
20260902022745 76 292 3.0 4.0 0.00 0.00 0.00 76 1017.2
20260902022547 76 292 3.0 4.0 0.00 0.00 0.00 76 1017.3
20260902022344 76 292 4.0 7.0 0.00 0.00 0.00 76 1017.3
20260902022144 76 270 3.0 4.0 0.00 0.00 0.00 76 1017.3
20260902021945 76 270 4.0 6.0 0.00 0.00 0.00 76 1017.3
20260902021743 76 248 2.0 4.0 0.00 0.00 0.00 76 1017.4
20260902021551 77 292 2.0 4.0 0.00 0.00 0.00 75 1017.3
20260902021343 77 270 2.0 4.0 0.00 0.00 0.00 75 1017.2
20260902021146 77 270 2.0 4.0 0.00 0.00 0.00 74 1017.3
20260902020742 78 292 2.0 4.0 0.00 0.00 0.00 74 1017.4
20260902020343 78 292 3.0 4.0 0.00 0.00 0.00 73 1017.4
20260902020144 78 292 3.0 4.0 0.00 0.00 0.00 73 1017.5
20260902015945 78 315 3.0 4.0 0.00 0.00 0.00 73 1017.3
20260902015744 78 270 2.0 2.0 0.00 0.00 0.00 72 1017.4
20260902015550 78 292 3.0 4.0 0.00 0.00 0.00 72 1017.3
20260902015343 79 292 3.0 4.0 0.00 0.00 0.00 72 1017.3
20260902015142 79 270 3.0 4.0 0.00 0.00 0.00 71 1017.2
20260902014942 79 292 4.0 7.0 0.00 0.00 0.00 71 1017.4
20260902014744 79 270 4.0 4.0 0.00 0.00 0.00 71 1017.4
20260902014550 79 292 4.0 7.0 0.00 0.00 0.00 71 1017.6
20260902014144 79 270 3.0 4.0 0.00 0.00 0.00 71 1017.3
20260902013949 79 270 5.0 7.0 0.00 0.00 0.00 71 1017.4
20260902013742 79 292 4.0 6.0 0.00 0.00 0.00 71 1017.3
20260902013548 79 315 5.0 7.0 0.00 0.00 0.00 71 1017.4
20260902013143 79 292 4.0 7.0 0.00 0.00 0.00 72 1017.5
20260902012942 79 292 4.0 7.0 0.00 0.00 0.00 72 1017.4
20260902012345 79 292 4.0 8.0 0.00 0.00 0.00 71 1017.3
20260902012142 79 292 4.0 6.0 0.00 0.00 0.00 71 1017.4
20260902011742 79 292 4.0 6.0 0.00 0.00 0.00 72 1017.3
20260902011549 79 292 3.0 6.0 0.00 0.00 0.00 72 1017.3
20260902011346 78 270 4.0 7.0 0.00 0.00 0.00 72 1017.3
20260902011143 78 270 4.0 4.0 0.00 0.00 0.00 73 1017.4
20260902010944 78 270 4.0 6.0 0.00 0.00 0.00 73 1017.3
20260902010743 78 292 4.0 4.0 0.00 0.00 0.00 73 1017.3
20260902010548 78 292 4.0 4.0 0.00 0.00 0.00 73 1017.3
20260902010344 78 292 4.0 6.0 0.00 0.00 0.00 73 1017.4
20260902010142 78 315 3.0 4.0 0.00 0.00 0.00 73 1017.6
20260902005942 78 292 4.0 4.0 0.00 0.00 0.00 73 1017.4
20260902005742 78 292 3.0 6.0 0.00 0.00 0.00 73 1017.5
20260902005549 78 292 3.0 4.0 0.00 0.00 0.00 73 1017.4
20260902005343 79 315 2.0 4.0 0.00 0.00 0.00 72 1017.5
20260902005143 79 292 4.0 6.0 0.00 0.00 0.00 72 1017.4
20260902004550 78 292 5.0 7.0 0.00 0.00 0.00 73 1017.5
20260902004343 78 292 4.0 6.0 0.00 0.00 0.00 73 1017.5
20260902003945 78 292 4.0 7.0 0.00 0.00 0.00 74 1017.4
20260902003547 78 292 3.0 4.0 0.00 0.00 0.00 74 1017.5
20260902003344 78 292 4.0 4.0 0.00 0.00 0.00 74 1017.6
20260902003144 78 292 3.0 4.0 0.00 0.00 0.00 73 1017.5
20260902002944 78 315 3.0 6.0 0.00 0.00 0.00 73 1017.6
20260902002742 79 292 3.0 4.0 0.00 0.00 0.00 73 1017.5
20260902002549 79 270 4.0 6.0 0.00 0.00 0.00 73 1017.6
20260902002344 78 292 4.0 6.0 0.00 0.00 0.00 73 1017.5
20260902002143 78 270 4.0 4.0 0.00 0.00 0.00 73 1017.5
20260902001944 78 292 4.0 7.0 0.00 0.00 0.00 73 1017.7
20260902001744 78 315 4.0 6.0 0.00 0.00 0.00 73 1017.7
20260902001550 78 292 4.0 4.0 0.00 0.00 0.00 73 1017.5
20260902001345 78 292 4.0 4.0 0.00 0.00 0.00 73 1017.6
20260902001144 78 315 4.0 6.0 0.00 0.00 0.00 73 1017.3
20260902000548 79 315 3.0 4.0 0.00 0.00 0.00 73 1017.5
20260902000344 79 315 3.0 4.0 0.00 0.00 0.00 73 1017.5
20260902000145 79 315 3.0 4.0 0.00 0.00 0.00 73 1017.5
20260901235944 79 292 3.0 4.0 0.00 0.00 0.00 73 1017.5
20260901235743 79 292 4.0 4.0 0.00 0.00 0.00 73 1017.5
20260901235549 79 315 3.0 4.0 0.00 0.00 0.00 72 1017.5
20260901235344 79 292 3.0 4.0 0.00 0.00 0.00 72 1017.5
20260901235144 79 292 4.0 7.0 0.00 0.00 0.00 72 1017.6
20260901234944 79 270 4.0 7.0 0.00 0.00 0.00 72 1017.4
20260901234742 79 270 4.0 6.0 0.00 0.00 0.00 72 1017.6
20260901234345 79 292 4.0 4.0 0.00 0.00 0.00 73 1017.6
20260901234143 79 248 4.0 6.0 0.00 0.00 0.00 73 1017.4
20260901233944 79 270 4.0 7.0 0.00 0.00 0.00 72 1017.5
20260901233742 80 270 3.0 4.0 0.00 0.00 0.00 71 1017.5
20260901233344 80 292 3.0 4.0 0.00 0.00 0.00 71 1017.7
20260901233143 80 270 4.0 6.0 0.00 0.00 0.00 71 1017.4
20260901232943 80 292 2.0 4.0 0.00 0.00 0.00 71 1017.4
20260901232743 80 292 3.0 6.0 0.00 0.00 0.00 71 1017.5
20260901232343 80 270 3.0 6.0 0.00 0.00 0.00 71 1017.5
20260901232143 80 248 3.0 4.0 0.00 0.00 0.00 71 1017.6
20260901231942 80 270 3.0 4.0 0.00 0.00 0.00 71 1017.7
20260901231742 80 292 2.0 4.0 0.00 0.00 0.00 71 1017.6
20260901231549 80 292 2.0 4.0 0.00 0.00 0.00 71 1017.4
20260901231344 80 292 2.0 6.0 0.00 0.00 0.00 70 1017.4
20260901231143 80 270 2.0 4.0 0.00 0.00 0.00 70 1017.6
20260901230944 80 270 2.0 4.0 0.00 0.00 0.00 70 1017.5
20260901230743 80 270 3.0 4.0 0.00 0.00 0.00 70 1017.5
20260901230545 80 292 3.0 4.0 0.00 0.00 0.00 70 1017.5
20260901230343 80 292 3.0 4.0 0.00 0.00 0.00 70 1017.6
20260901230143 81 292 2.0 4.0 0.00 0.00 0.00 69 1017.6
20260901225942 81 292 3.0 4.0 0.00 0.00 0.00 69 1017.3
20260901225742 81 270 3.0 4.0 0.00 0.00 0.00 69 1017.4
20260901225548 81 292 3.0 4.0 0.00 0.00 0.00 69 1017.3
20260901225344 81 292 4.0 6.0 0.00 0.00 0.00 69 1017.5
20260901225143 80 292 4.0 4.0 0.00 0.00 0.00 69 1017.5
20260901224943 80 292 4.0 6.0 0.00 0.00 0.00 70 1017.4
20260901224742 80 292 4.0 4.0 0.00 0.00 0.00 70 1017.5
20260901224548 80 292 3.0 4.0 0.00 0.00 0.00 71 1017.5
20260901224344 80 315 3.0 4.0 0.00 0.00 0.00 71 1017.6
20260901224142 80 292 3.0 4.0 0.00 0.00 0.00 71 1017.5
20260901223945 79 292 3.0 4.0 0.00 0.00 0.00 71 1017.5
20260901223742 79 292 3.0 4.0 0.00 0.00 0.00 72 1017.5
20260901223546 79 292 4.0 4.0 0.00 0.00 0.00 72 1017.7
20260901223344 79 292 3.0 4.0 0.00 0.00 0.00 72 1017.6
20260901223143 79 315 4.0 4.0 0.00 0.00 0.00 72 1017.7
20260901222942 79 292 3.0 4.0 0.00 0.00 0.00 73 1017.6
20260901222549 79 292 2.0 4.0 0.00 0.00 0.00 73 1017.8
20260901222344 79 270 2.0 2.0 0.00 0.00 0.00 73 1017.7
20260901222143 79 292 2.0 4.0 0.00 0.00 0.00 73 1017.7
20260901221943 79 292 3.0 4.0 0.00 0.00 0.00 73 1017.7
20260901221549 79 270 2.0 2.0 0.00 0.00 0.00 73 1017.4
20260901221343 80 292 2.0 2.0 0.00 0.00 0.00 72 1017.6
20260901221144 80 292 2.0 2.0 0.00 0.00 0.00 72 1017.6
20260901220946 80 292 2.0 2.0 0.00 0.00 0.00 72 1017.5
20260901220743 80 292 2.0 2.0 0.00 0.00 0.00 72 1017.7
20260901220345 80 292 2.0 2.0 0.00 0.00 0.00 71 1017.5
20260901220150 80 292 2.0 4.0 0.00 0.00 0.00 71 1017.3
20260901215943 80 292 2.0 2.0 0.00 0.00 0.00 71 1017.3
20260901215743 80 292 2.0 4.0 0.00 0.00 0.00 71 1017.4
20260901215142 80 292 2.0 4.0 0.00 0.00 0.00 71 1017.6
20260901214742 81 292 2.0 2.0 0.00 0.00 0.00 70 1017.4
20260901214548 81 292 2.0 2.0 0.00 0.00 0.00 70 1017.4
20260901214344 81 292 2.0 4.0 0.00 0.00 0.00 70 1017.4
20260901213945 81 270 2.0 4.0 0.00 0.00 0.00 69 1017.6
20260901213742 81 292 3.0 4.0 0.00 0.00 0.00 69 1017.5
20260901213144 81 270 2.0 4.0 0.00 0.00 0.00 69 1017.5
20260901212943 81 292 2.0 4.0 0.00 0.00 0.00 69 1017.3
20260901212548 81 270 3.0 4.0 0.00 0.00 0.00 69 1017.5
20260901212346 81 292 2.0 4.0 0.00 0.00 0.00 69 1017.6
20260901211743 81 292 3.0 4.0 0.00 0.00 0.00 69 1017.3
20260901211549 81 292 2.0 2.0 0.00 0.00 0.00 68 1017.4
20260901211144 82 292 2.0 4.0 0.00 0.00 0.00 68 1017.3